Le nostre stazioni meteo in Italia

Pubblicità
Il mio iltempo24.it
Luqa, Malta (16597): Temperatura & dewpoint: 05.12.2018 02:00:00 - 11.12.2018 02:00:00 (CET)Luqa, Malta (16597): velocità del vento: 05.12.2018 02:00:00 - 11.12.2018 02:00:00 (CET)Luqa, Malta (16597): direzione del vento: 05.12.2018 02:00:00 - 11.12.2018 02:00:00 (CET)Luqa, Malta (16597): reduced air pressure: 05.12.2018 02:00:00 - 11.12.2018 02:00:00 (CET)Luqa, Malta (16597): visibility: 05.12.2018 02:00:00 - 11.12.2018 02:00:00 (CET)
Data & Tempo tt [°C] td [°C] ff [km/h] ff [kn] dd ppp [hPa] vv [km]
11.12.2018 02:00:00 14,0 8,0 24 13 NNO - 10
11.12.2018 01:00:00 14,3 8,2 18 10 NNO 1017,8 10
11.12.2018 00:00:00 14,0 8,0 22 12 NO - 10
10.12.2018 23:00:00 14,0 8,0 16 9 NO - 10
10.12.2018 22:00:00 14,2 7,6 22 12 NO 1018,1 10
10.12.2018 21:00:00 14,0 8,0 24 13 NO - 10
10.12.2018 20:00:00 15,0 8,0 28 15 NO - 10
10.12.2018 19:00:00 14,9 8,0 26 14 NO 1017,6 10
10.12.2018 18:00:00 15,0 8,0 34 18 NO - 10
10.12.2018 17:00:00 15,0 8,0 34 18 NO - 10
10.12.2018 16:00:00 15,5 8,2 35 19 NNO 1017,3 10
10.12.2018 15:00:00 16,0 8,0 37 20 NO - 10
10.12.2018 14:00:00 17,0 9,0 24 13 NO - 10
10.12.2018 13:00:00 16,8 9,1 31 17 NO 1017,9 10
10.12.2018 12:00:00 16,0 10,0 29 16 NO - 10
10.12.2018 11:00:00 17,0 10,0 42 23 NO - 10
10.12.2018 10:00:00 16,9 10,2 42 23 NO 1018,1 10
10.12.2018 09:00:00 16,0 10,0 42 23 NNO - 10
10.12.2018 08:00:00 16,0 9,0 39 21 NNO - 10
10.12.2018 07:00:00 16,6 9,5 41 22 NO 1017,0 10
10.12.2018 06:00:00 17,0 12,0 37 20 NO - 10
10.12.2018 05:00:00 16,0 12,0 39 21 ONO - 10
10.12.2018 04:00:00 16,0 13,0 39 21 ONO 1017,2 10
10.12.2018 03:00:00 17,0 12,0 34 18 NO - 10
10.12.2018 02:00:00 17,0 11,0 48 26 NO - 10
10.12.2018 01:00:00 16,6 12,5 35 19 NO 1019,2 10
10.12.2018 00:00:00 17,0 12,0 37 20 NO - 10
09.12.2018 23:00:00 17,0 12,0 46 25 NO - 10
09.12.2018 22:00:00 16,8 11,9 37 20 ONO 1020,3 10
09.12.2018 21:00:00 17,0 12,0 35 19 NO - 10
09.12.2018 20:00:00 16,0 11,0 37 20 ONO - 10
09.12.2018 19:00:00 16,2 11,3 37 20 NO 1020,0 10
09.12.2018 18:00:00 16,0 12,0 35 19 NO - 10
09.12.2018 17:00:00 16,0 11,0 29 16 NO - 10
09.12.2018 16:00:00 16,7 12,0 31 17 NO 1019,4 10
09.12.2018 15:00:00 17,0 11,0 34 18 NO - 10
09.12.2018 14:00:00 17,0 11,0 37 20 NO - 10
09.12.2018 13:00:00 17,1 9,6 39 21 NO 1020,3 10
09.12.2018 12:00:00 17,0 9,0 35 19 NO - 10
09.12.2018 11:00:00 17,0 8,0 29 16 NO - 10
09.12.2018 10:00:00 16,7 10,7 35 19 NNO 1021,8 10
09.12.2018 09:00:00 16,0 10,0 28 15 NO - 10
09.12.2018 08:00:00 15,0 9,0 34 18 NNO - 10
09.12.2018 07:00:00 13,6 7,7 28 15 NO 1020,1 10
09.12.2018 06:00:00 14,0 8,0 28 15 NNO - 10
09.12.2018 05:00:00 13,0 8,0 24 13 NNO - 10
09.12.2018 04:00:00 13,7 8,5 21 11 NO 1019,6 10
09.12.2018 03:00:00 14,0 8,0 22 12 NNO - 10
09.12.2018 02:00:00 14,0 9,0 26 14 NNO - 10
09.12.2018 01:00:00 14,4 6,9 28 15 NNO 1019,9 10
09.12.2018 00:00:00 15,0 8,0 26 14 NO - 10
08.12.2018 23:00:00 15,0 8,0 28 15 NNO - 10
08.12.2018 22:00:00 15,3 8,4 26 14 NO 1020,1 10
08.12.2018 21:00:00 16,0 10,0 29 16 NO - 10
08.12.2018 20:00:00 16,0 10,0 24 13 NO - 10
08.12.2018 19:00:00 16,7 10,7 34 18 NO 1019,4 10
08.12.2018 18:00:00 16,0 13,0 28 15 ONO - 10
08.12.2018 17:00:00 16,0 12,0 29 16 ONO - 10
08.12.2018 16:00:00 16,9 12,5 24 13 ONO 1018,9 10
08.12.2018 15:00:00 17,0 13,0 34 18 NO - 10
08.12.2018 14:00:00 18,0 12,0 22 12 NO - 10
08.12.2018 13:00:00 17,8 11,9 26 14 NO 1019,7 10
08.12.2018 12:00:00 18,0 13,0 29 16 NO - 10
08.12.2018 11:00:00 18,0 13,0 16 9 ONO - 10
08.12.2018 10:00:00 17,2 12,7 15 8 ONO 1021,2 10
08.12.2018 09:00:00 16,0 13,0 8 4 ONO - 10
08.12.2018 08:00:00 14,0 12,0 13 7 NO - 10
08.12.2018 07:00:00 12,6 11,0 9 5 NO 1020,9 10
08.12.2018 06:00:00 13,0 11,0 8 4 NO - 10
08.12.2018 05:00:00 13,0 11,0 9 5 NNO - 10
08.12.2018 04:00:00 12,4 10,7 9 5 NNO 1020,4 10
08.12.2018 03:00:00 13,0 11,0 5 3 NNO - 10
08.12.2018 02:00:00 13,0 11,0 8 4 NNO - 10
08.12.2018 01:00:00 14,6 11,6 5 3 N 1020,7 10
08.12.2018 00:00:00 15,0 11,0 9 5 E - 10
07.12.2018 23:00:00 15,0 12,0 9 5 ENE - 10
07.12.2018 22:00:00 15,6 11,6 9 5 ENE 1021,5 10
07.12.2018 21:00:00 16,0 12,0 15 8 ENE - 10
07.12.2018 20:00:00 16,0 12,0 16 9 ENE - 10
07.12.2018 19:00:00 16,1 12,3 21 11 ENE 1021,0 10
07.12.2018 18:00:00 16,0 12,0 15 8 ENE - 10
07.12.2018 17:00:00 16,0 13,0 21 11 E - 10
07.12.2018 16:00:00 17,3 13,4 22 12 E 1019,8 10
07.12.2018 15:00:00 16,0 14,0 21 11 E - 10
07.12.2018 14:00:00 18,0 13,0 18 10 E - 10
07.12.2018 13:00:00 17,4 13,6 11 6 E 1019,2 10
07.12.2018 12:00:00 18,0 14,0 15 8 E - 10
07.12.2018 11:00:00 17,0 13,0 16 9 E - 10
07.12.2018 10:00:00 16,4 14,2 22 12 E 1019,7 10
07.12.2018 09:00:00 16,0 15,0 15 8 E - 10
07.12.2018 08:00:00 14,0 14,0 9 5 ESE - 10
07.12.2018 07:00:00 14,1 13,9 11 6 ESE 1018,4 10
07.12.2018 06:00:00 14,0 14,0 11 6 ENE - 10
07.12.2018 05:00:00 14,0 13,0 8 4 E - 10
07.12.2018 04:00:00 14,2 14,0 4 2 - 1017,7 10
07.12.2018 03:00:00 15,0 14,0 4 2 - - 10
07.12.2018 02:00:00 15,0 14,0 2 1 - - 10
07.12.2018 01:00:00 14,3 12,9 5 3 SSE 1018,7 10
07.12.2018 00:00:00 14,0 12,0 2 1 - - 10
06.12.2018 23:00:00 14,0 12,0 2 1 ONO - 10
06.12.2018 22:00:00 14,7 11,7 4 2 - 1020,0 10
06.12.2018 21:00:00 14,0 11,0 5 3 ONO - 10
06.12.2018 20:00:00 14,0 11,0 9 5 ONO - 10
06.12.2018 19:00:00 14,5 11,4 8 4 O 1020,8 10
06.12.2018 18:00:00 15,0 11,0 9 5 ONO - 10
06.12.2018 17:00:00 15,0 11,0 9 5 ONO - 10
06.12.2018 16:00:00 17,1 12,0 15 8 ONO 1020,5 10
06.12.2018 15:00:00 17,0 12,0 18 10 NNO - 10
06.12.2018 14:00:00 18,0 12,0 18 10 NO - 10
06.12.2018 13:00:00 18,7 12,8 18 10 NO 1021,9 10
06.12.2018 12:00:00 19,0 13,0 16 9 ONO - 10
06.12.2018 11:00:00 19,0 13,0 15 8 ONO - 10
06.12.2018 10:00:00 18,4 12,7 13 7 ONO 1023,6 10
06.12.2018 09:00:00 17,0 14,0 5 3 ONO - 10
06.12.2018 08:00:00 14,0 14,0 9 5 ONO - 10
06.12.2018 07:00:00 12,8 12,6 9 5 ONO 1023,4 10
06.12.2018 06:00:00 13,0 12,0 8 4 ONO - 10
06.12.2018 05:00:00 11,0 11,0 4 2 O - 10
06.12.2018 04:00:00 12,8 12,0 4 2 O 1023,5 10
06.12.2018 03:00:00 13,0 12,0 4 2 SSE - 10
06.12.2018 02:00:00 13,0 12,0 5 3 SSE - 10
06.12.2018 01:00:00 14,1 12,3 4 2 SSO 1024,0 10
06.12.2018 00:00:00 14,0 12,0 8 4 S - 10
05.12.2018 23:00:00 14,0 12,0 8 4 S - 10
05.12.2018 22:00:00 13,7 12,1 8 4 S 1024,6 10
05.12.2018 21:00:00 14,0 12,0 8 4 S - 10
05.12.2018 20:00:00 14,0 12,0 2 1 S - 10
05.12.2018 19:00:00 14,8 12,1 4 2 SSE 1023,7 10
05.12.2018 18:00:00 16,0 12,0 2 1 - - 10
05.12.2018 17:00:00 17,0 12,0 5 3 ESE - 10
05.12.2018 16:00:00 18,1 12,5 8 4 NE 1022,4 10
05.12.2018 15:00:00 19,0 12,0 13 7 NE - 10
05.12.2018 14:00:00 19,0 12,0 18 10 NNE - 10
05.12.2018 13:00:00 19,1 12,4 21 11 NNE 1021,5 10
05.12.2018 12:00:00 19,0 12,0 22 12 N - 10
05.12.2018 11:00:00 19,0 13,0 21 11 N - 10
05.12.2018 10:00:00 18,3 12,8 22 12 N 1021,3 10
05.12.2018 09:00:00 18,0 13,0 21 11 N - 10
05.12.2018 08:00:00 17,0 13,0 22 12 N - 10
05.12.2018 07:00:00 14,4 12,4 13 7 NNO 1019,3 10
05.12.2018 06:00:00 15,0 13,0 16 9 NNO - 10
05.12.2018 05:00:00 15,0 13,0 13 7 NO - 10
05.12.2018 04:00:00 15,1 13,4 16 9 NNO 1017,8 10
05.12.2018 03:00:00 15,0 13,0 22 12 NNO - 10
05.12.2018 02:00:00 16,0 13,0 21 11 NNO - 10

tt = Temperatura
td = dewpoint
ff = velocità del vento
dd = direzione del vento
ppp = reduced air pressure
vv = visibility

Stazioni seguenti

WeatherPro
AMSI
MeteoEarth